Location: Gälforsberget
(66.6500°N, 22.4167°E)
Time: 09:49:03
(UTC+00:00)

Cosmos 1733 Rocket - Pass Details

Date: 11 April 2026
Orbit: 597 x 620 km, 82.5° (Epoch: 19 May)

Event Time Altitude Azimuth Distance (km) Brightness Sun altitude
Exits shadow 20:18:26 - 195° (SSW) 2,428 5.7 -11.0°
Reaches altitude 10° 20:19:33 10° 195° (SSW) 1,973 5.3 -11.1°
Maximum altitude 20:23:56 86° 106° (ESE) 627 3.0 -11.3°
Drops below altitude 10° 20:28:22 10° 19° (NNE) 1,998 6.3 -11.6°
Sets 20:30:37 0° 19° (NNE) 2,911 7.1 -11.7°
